• Join FlightAware (Why Join?)
  • Login
  • US Flag 
04:21PM EDT


 

Airport Tracker/Info


-or-


 

Live Flight TrackerFlight Track Log ✈ LIA553 ✈ 08-May-2013 ✈ TQPF / AXA - TAPA / ANU

Flight Track Log - Related Links

Times and Time Zones

All times are in EDT time to prevent confusion due to time zone crossing. See the LIA553 flight status page for this flight to view local times or setup timezone preferences in your user account.

Time Position Orientation Groundspeed Altitude Reporting Facility
EDT Latitude Longitude Course Direction KTS MPH feet Rate Location/Type
03:12PM 17.5105 -62.3459 126° Southeast  Level FlightAware Approximate
03:13PM 17.4607 -62.2733 126° Southeast  Level FlightAware Approximate
03:14PM 17.4081 -62.2030 131° Southeast  Level FlightAware Approximate
03:15PM 17.3520 -62.1357 131° Southeast  Level FlightAware Approximate
03:16PM 17.3029 -62.0627 125° Southeast  Level FlightAware Approximate
03:17PM 17.2541 -61.9894 125° Southeast  Level FlightAware Approximate
03:18PM 17.2017 -61.9189 128° Southeast  Level FlightAware Approximate
03:19PM 17.1491 -61.8487 125° Southeast  Level FlightAware Approximate
03:20PM 17.1367 -61.7927 90° East  Level Estimated
03:21PM 17.1367 -61.7927 90° East  Level Estimated
03:22PM 17.1367 -61.7927 90° East  Level Estimated
03:23PM 17.1367 -61.7927 90° East  Level Estimated
03:24PM 17.1367 -61.7927 90° East  Level Estimated
03:25PM 17.1367 -61.7927 90° East  Level Estimated
03:26PM 17.1367 -61.7927 90° East  Level Estimated
03:27PM 17.1367 -61.7927 90° East  Level Estimated
03:28PM 17.1367 -61.7927 90° East  Level Estimated
03:29PM 17.1367 -61.7927 90° East  Level Estimated
03:30PM 17.1367 -61.7927 90° East  Level Estimated
03:31PM 17.1367 -61.7927 90° East  Level Estimated
03:32PM 17.1367 -61.7927 90° East  Level Estimated
03:33PM 17.1367 -61.7927 90° East  Level Estimated
03:34PM 17.1367 -61.7927 90° East  Level Estimated
03:35PM 17.1367 -61.7927 90° East  Level Estimated
03:36PM 17.1367 -61.7927 90° East  Level Estimated